Location: Unspecified
(0.0000°N, 0.0000°E)
Time: 11:14:28
(UTC+00:00)

Courier 1B Rocket - Pass Details

Date: 24 November 2019
Orbit: 920 x 1202 km, 28.2° (Epoch: 13 December)

Event Time Altitude Azimuth Distance (km) Brightness Sun altitude
Rises 09:15:55 0° 246° (WSW) 3,566 7.7 47.8°
Reaches altitude 10° 09:18:33 10° 249° (WSW) 2,610 7.1 48.4°
Maximum altitude 09:24:43 63° 330° (NNW) 1,014 5.6 49.7°
Drops below altitude 10° 09:30:57 10° 51° (NE) 2,639 7.6 51.0°
Sets 09:33:38 0° 54° (NE) 3,609 8.1 51.6°
